SQ9NFI-4 Weather Reports


Display with metric or nautical units.
time (UTC)temp
F
wind
direction
speed
MPH
gust
MPH
rain 1hr
in
rain 24hr
in
rain mn
in
humidity
%
barometer
mb
20260902090902 75 327 4.0 6.0 0.00 0.00 0.00 56 1022.0
20260902090402 74 327 5.0 7.0 0.00 0.00 0.00 56 1022.0
20260902085902 74 319 2.0 2.0 0.00 0.00 0.00 57 1022.0
20260902085402 74 313 1.0 1.0 0.00 0.00 0.00 57 1022.0
20260902084902 74 325 5.0 6.0 0.00 0.00 0.00 56 1022.0
20260902084402 73 238 4.0 6.0 0.00 0.00 0.00 58 1022.0
20260902083902 73 313 4.0 5.0 0.00 0.00 0.00 57 1022.0
20260902083402 74 312 1.0 1.0 0.00 0.00 0.00 58 1022.0
20260902082902 73 295 7.0 8.0 0.00 0.00 0.00 58 1022.0
20260902082402 73 336 7.0 10.0 0.00 0.00 0.00 59 1022.0
20260902081902 74 295 6.0 7.0 0.00 0.00 0.00 61 1022.0
20260902081402 73 286 4.0 6.0 0.00 0.00 0.00 58 1022.4
20260902080902 72 343 4.0 5.0 0.00 0.00 0.00 60 1022.4
20260902080402 71 311 5.0 9.0 0.00 0.00 0.00 61 1022.4
20260902075902 71 243 5.0 10.0 0.00 0.00 0.00 62 1022.0
20260902075402 71 273 5.0 8.0 0.00 0.00 0.00 62 1022.0
20260902074902 71 287 4.0 6.0 0.00 0.00 0.00 62 1022.0
20260902074402 71 323 1.0 2.0 0.00 0.00 0.00 63 1022.0
20260902073902 70 299 3.0 3.0 0.00 0.00 0.00 65 1022.0
20260902073402 70 315 5.0 10.0 0.00 0.00 0.00 62 1022.0
20260902072902 70 303 3.0 4.0 0.00 0.00 0.00 65 1022.0
20260902072402 70 343 2.0 4.0 0.00 0.00 0.00 66 1022.0
20260902071902 69 322 3.0 5.0 0.00 0.00 0.00 66 1022.0
20260902071402 69 324 2.0 2.0 0.00 0.00 0.00 68 1021.7
20260902070902 69 350 4.0 6.0 0.00 0.00 0.00 70 1021.7
20260902070402 68 307 1.0 1.0 0.00 0.00 0.00 69 1021.7
20260902065902 67 325 3.0 4.0 0.00 0.00 0.00 70 1021.7
20260902065402 67 294 2.0 2.0 0.00 0.00 0.00 72 1021.7
20260902064902 67 320 1.0 1.0 0.00 0.00 0.00 75 1021.7
20260902064402 67 287 1.0 1.0 0.00 0.00 0.00 76 1021.7
20260902063902 65 342 0.0 0.0 0.00 0.00 0.00 75 1021.7
20260902063402 65 340 0.0 0.0 0.00 0.00 0.00 80 1021.7
20260902062902 64 340 0.0 1.0 0.00 0.00 0.00 81 1021.7
20260902062402 63 337 0.0 0.0 0.00 0.00 0.00 88 1021.7
20260902061902 62 340 0.0 0.0 0.00 0.00 0.00 88 1021.7
20260902061402 61 338 0.0 0.0 0.00 0.00 0.00 94 1021.7
20260902060902 59 340 0.0 0.0 0.00 0.00 0.00 97 1021.7
20260902060402 58 340 0.0 0.0 0.00 0.00 0.00 99 1021.7
20260902055902 58 336 0.0 0.0 0.00 0.00 0.00 99 1021.0
20260902055402 57 335 0.0 0.0 0.00 0.00 0.00 99 1021.0
20260902054902 56 333 0.0 0.0 0.00 0.00 0.00 99 1021.0
20260902054402 55 337 0.0 0.0 0.00 0.00 0.00 99 1021.0
20260902053902 54 12 2.0 2.0 0.00 0.00 0.00 99 1021.0
20260902053402 53 327 0.0 0.0 0.00 0.00 0.00 99 1021.0
20260902052902 52 326 0.0 0.0 0.00 0.00 0.00 99 1021.0
20260902052402 51 325 0.0 0.0 0.00 0.00 0.00 99 1021.0
20260902051902 51 317 1.0 1.0 0.00 0.00 0.00 99 1021.0
20260902051402 51 326 0.0 1.0 0.00 0.00 0.00 99 1021.7
20260902050902 50 326 0.0 0.0 0.00 0.00 0.00 99 1021.7
20260902050402 49 308 0.0 1.0 0.00 0.00 0.00 99 1021.7
20260902045902 49 319 0.0 0.0 0.00 0.00 0.00 99 1021.0
20260902045402 48 287 2.0 2.0 0.00 0.00 0.00 99 1021.0
20260902044902 47 327 0.0 0.0 0.00 0.00 0.00 99 1021.0
20260902044402 47 327 0.0 0.0 0.00 0.00 0.00 99 1021.0
20260902043902 46 326 0.0 0.0 0.00 0.00 0.00 99 1021.0
20260902043402 46 323 0.0 0.0 0.00 0.00 0.00 99 1021.0
20260902042902 46 323 0.0 0.0 0.00 0.00 0.00 99 1021.0
20260902042402 46 335 0.0 0.0 0.00 0.00 0.00 99 1021.0
20260902041902 46 335 0.0 0.0 0.00 0.00 0.00 99 1021.0
20260902041402 46 331 0.0 0.0 0.00 0.00 0.00 99 1021.0
20260902040902 46 330 0.0 0.0 0.00 0.00 0.00 99 1021.0
20260902040402 46 330 0.0 0.0 0.00 0.00 0.00 99 1021.0
20260902035902 46 329 0.0 0.0 0.00 0.00 0.00 99 1021.0
20260902035402 46 330 0.0 0.0 0.00 0.00 0.00 99 1021.0
20260902034902 46 330 0.0 0.0 0.00 0.00 0.00 99 1021.0
20260902034402 46 326 0.0 0.0 0.00 0.00 0.00 99 1021.0
20260902033902 46 326 0.0 0.0 0.00 0.00 0.00 99 1021.0
20260902033402 46 326 0.0 0.0 0.00 0.00 0.00 99 1021.0
20260902032902 46 326 0.0 0.0 0.00 0.00 0.00 99 1021.0
20260902032402 46 326 0.0 0.0 0.00 0.00 0.00 99 1021.0
20260902031902 46 331 0.0 0.0 0.00 0.00 0.00 99 1021.0
20260902031402 47 336 0.0 0.0 0.00 0.00 0.00 99 1021.0
20260902030902 46 332 0.0 0.0 0.00 0.00 0.00 99 1021.0
20260902030402 46 332 0.0 0.0 0.00 0.00 0.00 99 1021.0
20260902025902 46 332 0.0 0.0 0.00 0.00 0.00 99 1021.0
20260902025402 46 332 0.0 0.0 0.00 0.00 0.00 99 1021.0
20260902024902 47 326 0.0 0.0 0.00 0.00 0.00 99 1021.0
20260902024402 47 329 0.0 0.0 0.00 0.00 0.00 99 1021.0
20260902023902 47 329 0.0 0.0 0.00 0.00 0.00 99 1021.0
20260902023402 47 329 0.0 0.0 0.00 0.00 0.00 99 1021.0
20260902022902 47 331 0.0 0.0 0.00 0.00 0.00 99 1021.0
20260902022402 47 331 0.0 0.0 0.00 0.00 0.00 99 1021.0
20260902021902 47 331 0.0 0.0 0.00 0.00 0.00 99 1021.0
20260902021402 47 329 0.0 0.0 0.00 0.00 0.00 99 1021.0
20260902020902 47 329 0.0 0.0 0.00 0.00 0.00 99 1021.0
20260902020402 47 329 0.0 0.0 0.00 0.00 0.00 99 1021.0
20260902015902 47 329 0.0 0.0 0.00 0.00 0.00 99 1021.0
20260902015402 47 326 0.0 0.0 0.00 0.00 0.00 99 1021.0
20260902014902 47 324 0.0 0.0 0.00 0.00 0.00 99 1021.0
20260902014402 47 326 0.0 0.0 0.00 0.00 0.00 99 1021.0
20260902013902 47 326 0.0 0.0 0.00 0.00 0.00 99 1021.0
20260902013402 47 326 0.0 0.0 0.00 0.00 0.00 99 1021.0
20260902012902 47 326 0.0 0.0 0.00 0.00 0.00 99 1021.0
20260902012402 47 326 0.0 0.0 0.00 0.00 0.00 99 1021.0
20260902011902 48 324 0.0 0.0 0.00 0.00 0.00 99 1021.0
20260902011402 48 322 0.0 0.0 0.00 0.00 0.00 99 1021.0
20260902010902 48 319 0.0 0.0 0.00 0.00 0.00 99 1021.0
20260902010402 48 331 0.0 0.0 0.00 0.00 0.00 99 1021.0
20260902005902 48 331 0.0 0.0 0.00 0.00 0.00 99 1021.0
20260902005402 48 331 0.0 0.0 0.00 0.00 0.00 99 1021.0
20260902004902 48 331 0.0 0.0 0.00 0.00 0.00 99 1021.0
20260902004402 48 331 0.0 0.0 0.00 0.00 0.00 99 1021.0
20260902003902 48 331 0.0 0.0 0.00 0.00 0.00 99 1021.0
20260902003402 48 331 0.0 0.0 0.00 0.00 0.00 99 1021.0
20260902002902 48 331 0.0 0.0 0.00 0.00 0.00 99 1021.0
20260902002402 48 331 0.0 0.0 0.00 0.00 0.00 99 1021.0
20260902001902 49 334 0.0 0.0 0.00 0.00 0.00 99 1021.0
20260902001402 49 326 0.0 0.0 0.00 0.00 0.00 99 1021.0
20260902000902 49 331 0.0 0.0 0.00 0.00 0.00 99 1021.0
20260902000402 49 329 0.0 0.0 0.00 0.00 0.00 99 1021.0
20260901235902 49 327 0.0 0.0 0.00 0.00 0.00 99 1021.0
20260901235402 49 333 0.0 0.0 0.00 0.00 0.00 99 1021.0
20260901234902 49 333 1.0 1.0 0.00 0.00 0.00 99 1021.0
20260901234402 49 333 0.0 0.0 0.00 0.00 0.00 99 1021.0
20260901233902 49 332 0.0 0.0 0.00 0.00 0.00 99 1021.0
20260901233402 49 332 0.0 0.0 0.00 0.00 0.00 99 1021.0
20260901232902 49 332 0.0 0.0 0.00 0.00 0.00 99 1021.0
20260901232402 49 328 0.0 0.0 0.00 0.00 0.00 99 1021.0
20260901231902 49 333 0.0 0.0 0.00 0.00 0.00 99 1021.0
20260901231402 50 333 0.0 0.0 0.00 0.00 0.00 99 1021.0
20260901230902 49 332 0.0 0.0 0.00 0.00 0.00 99 1021.0
20260901230402 50 330 0.0 0.0 0.00 0.00 0.00 99 1021.0
20260901225902 50 331 0.0 0.0 0.00 0.00 0.00 99 1021.0
20260901225402 50 334 0.0 0.0 0.00 0.00 0.00 99 1021.0
20260901224902 50 336 0.0 0.0 0.00 0.00 0.00 99 1021.0
20260901224402 50 336 0.0 0.0 0.00 0.00 0.00 99 1021.0
20260901223902 50 325 0.0 0.0 0.00 0.00 0.00 99 1021.0
20260901223402 50 339 0.0 0.0 0.00 0.00 0.00 99 1021.0
20260901222902 50 338 0.0 0.0 0.00 0.00 0.00 99 1021.0
20260901222402 51 338 0.0 0.0 0.00 0.00 0.00 99 1021.0
20260901221902 51 337 0.0 0.0 0.00 0.00 0.00 99 1021.0
20260901221402 51 337 0.0 0.0 0.00 0.00 0.00 99 1021.0
20260901220902 51 337 0.0 0.0 0.00 0.00 0.00 99 1021.0
20260901220402 51 338 0.0 0.0 0.00 0.00 0.00 99 1021.0
20260901215902 51 338 0.0 0.0 0.00 0.00 0.00 99 1021.0
20260901215402 51 340 0.0 0.0 0.00 0.00 0.00 99 1021.0
20260901214902 51 337 0.0 0.0 0.00 0.00 0.00 99 1021.0
20260901214402 51 340 0.0 0.0 0.00 0.00 0.00 99 1021.0
20260901213902 51 336 0.0 0.0 0.00 0.00 0.00 99 1021.0
20260901213402 51 336 0.0 0.0 0.00 0.00 0.00 99 1021.0
20260901212902 51 336 0.0 0.0 0.00 0.00 0.00 99 1021.0
20260901212401 52 336 0.0 0.0 0.00 0.00 0.00 99 1021.0
20260901211901 52 336 0.0 0.0 0.00 0.00 0.00 99 1021.0
20260901211401 52 336 0.0 0.0 0.00 0.00 0.00 99 1021.0
20260901210902 52 336 0.0 0.0 0.00 0.00 0.00 99 1021.0
20260901210402 52 332 0.0 0.0 0.00 0.00 0.00 99 1021.0
20260901205902 53 333 0.0 0.0 0.00 0.00 0.00 99 1021.0
20260901205402 53 330 0.0 0.0 0.00 0.00 0.00 99 1021.0
20260901204902 53 329 0.0 0.0 0.00 0.00 0.00 99 1021.0
20260901204402 53 329 0.0 0.0 0.00 0.00 0.00 99 1021.0
20260901203901 53 329 0.0 0.0 0.00 0.00 0.00 99 1021.0
20260901203401 53 329 0.0 0.0 0.00 0.00 0.00 99 1021.0
20260901202901 53 328 0.0 0.0 0.00 0.00 0.00 99 1021.0
20260901202401 53 328 0.0 0.0 0.00 0.00 0.00 99 1020.7
20260901201902 53 328 0.0 0.0 0.00 0.00 0.00 99 1020.7
20260901201402 53 329 0.0 0.0 0.00 0.00 0.00 99 1020.7
20260901200901 53 329 0.0 0.0 0.00 0.00 0.00 99 1020.7
20260901200401 53 329 0.0 0.0 0.00 0.00 0.00 99 1020.7
20260901195902 53 329 0.0 0.0 0.00 0.00 0.00 99 1020.7
20260901195402 53 328 0.0 0.0 0.00 0.00 0.00 99 1020.7
20260901194902 53 336 0.0 0.0 0.00 0.00 0.00 99 1020.7
20260901194401 53 336 0.0 0.0 0.00 0.00 0.00 99 1020.7
20260901193902 53 336 0.0 0.0 0.00 0.00 0.00 99 1020.7
20260901193402 54 335 0.0 0.0 0.00 0.00 0.00 99 1020.7
20260901192902 54 336 0.0 0.0 0.00 0.00 0.00 99 1020.7
20260901192402 54 336 0.0 0.0 0.00 0.00 0.00 99 1020.7
20260901191902 54 335 0.0 0.0 0.00 0.00 0.00 99 1020.7
20260901191402 55 336 0.0 0.0 0.00 0.00 0.00 99 1020.7
20260901190902 55 336 0.0 0.0 0.00 0.00 0.00 99 1020.7
20260901190402 55 336 0.0 0.0 0.00 0.00 0.00 99 1020.7
20260901185902 56 336 0.0 0.0 0.00 0.00 0.00 99 1020.7
20260901185402 56 336 0.0 0.0 0.00 0.00 0.00 99 1020.7
20260901184902 56 336 0.0 0.0 0.00 0.00 0.00 99 1020.7
20260901184402 56 336 0.0 0.0 0.00 0.00 0.00 99 1020.7
20260901183902 56 330 0.0 0.0 0.00 0.00 0.00 99 1020.7
20260901183401 56 329 0.0 0.0 0.00 0.00 0.00 98 1020.7
20260901182901 57 329 0.0 0.0 0.00 0.00 0.00 98 1020.7
20260901182401 57 328 0.0 0.0 0.00 0.00 0.00 98 1020.3
20260901181901 57 328 0.0 0.0 0.00 0.00 0.00 97 1020.3
20260901181402 58 328 0.0 0.0 0.00 0.00 0.00 96 1020.3
20260901180901 58 328 0.0 0.0 0.00 0.00 0.00 95 1020.3
20260901180401 58 328 0.0 0.0 0.00 0.00 0.00 94 1020.3
20260901175901 59 328 0.0 0.0 0.00 0.00 0.00 94 1020.0
20260901175401 59 324 0.0 0.0 0.00 0.00 0.00 92 1020.0
20260901174901 60 320 0.0 0.0 0.00 0.00 0.00 90 1020.0
20260901174401 60 320 0.0 0.0 0.00 0.00 0.00 88 1020.0
20260901173901 61 320 0.0 0.0 0.00 0.00 0.00 86 1020.0
20260901173401 62 319 0.0 0.0 0.00 0.00 0.00 86 1020.0
20260901172901 62 320 0.0 0.0 0.00 0.00 0.00 84 1020.0
20260901172401 63 319 0.0 0.0 0.00 0.00 0.00 82 1020.0
20260901171901 64 320 0.0 0.0 0.00 0.00 0.00 80 1020.0
20260901171401 65 319 0.0 0.0 0.00 0.00 0.00 77 1020.0
20260901170902 67 317 0.0 0.0 0.00 0.00 0.00 73 1020.0
20260901170401 68 319 0.0 1.0 0.00 0.00 0.00 69 1020.0
20260901165901 68 325 0.0 1.0 0.00 0.00 0.00 64 1020.0
20260901165401 68 323 0.0 1.0 0.00 0.00 0.00 64 1020.0
20260901164901 69 318 1.0 2.0 0.00 0.00 0.00 64 1020.0
20260901164402 69 297 5.0 6.0 0.00 0.00 0.00 62 1020.0
20260901163901 69 300 4.0 5.0 0.00 0.00 0.00 62 1020.0
20260901163401 69 280 5.0 5.0 0.00 0.00 0.00 62 1020.0
20260901162901 70 305 5.0 7.0 0.00 0.00 0.00 61 1020.0
20260901162401 71 312 7.0 7.0 0.00 0.00 0.00 60 1020.0
20260901161901 70 327 3.0 4.0 0.00 0.00 0.00 61 1020.0
20260901161401 70 335 4.0 10.0 0.00 0.00 0.00 61 1020.0
20260901160902 70 329 4.0 5.0 0.00 0.00 0.00 61 1020.0
20260901160401 70 307 5.0 6.0 0.00 0.00 0.00 61 1020.0
20260901155901 70 286 4.0 6.0 0.00 0.00 0.00 61 1020.0
20260901155401 70 341 7.0 10.0 0.00 0.00 0.00 60 1020.0
20260901154901 70 328 4.0 7.0 0.00 0.00 0.00 61 1020.0
20260901154401 70 322 2.0 4.0 0.00 0.00 0.00 62 1020.0
20260901153901 71 297 6.0 9.0 0.00 0.00 0.00 61 1020.0
20260901153401 70 320 6.0 6.0 0.00 0.00 0.00 59 1020.0
20260901152901 70 280 6.0 7.0 0.00 0.00 0.00 60 1020.0
20260901152401 70 308 1.0 6.0 0.00 0.00 0.00 61 1020.0
20260901151901 70 330 13.0 15.0 0.00 0.00 0.00 59 1020.0
20260901151401 69 301 11.0 14.0 0.00 0.00 0.00 59 1020.0
20260901150901 70 313 4.0 6.0 0.00 0.00 0.00 60 1020.0
20260901150401 70 285 6.0 8.0 0.00 0.00 0.00 60 1020.0
20260901145901 71 335 4.0 6.0 0.00 0.00 0.00 59 1020.0
20260901145401 71 336 4.0 6.0 0.00 0.00 0.00 58 1020.0
20260901144901 71 318 6.0 10.0 0.00 0.00 0.00 58 1020.0
20260901144401 73 312 6.0 6.0 0.00 0.00 0.00 55 1020.0
20260901143901 71 272 6.0 9.0 0.00 0.00 0.00 56 1020.0
20260901143401 73 285 6.0 15.0 0.00 0.00 0.00 55 1020.0
20260901142901 72 304 6.0 7.0 0.00 0.00 0.00 55 1020.0
20260901142401 73 290 6.0 6.0 0.00 0.00 0.00 55 1019.6
20260901141901 73 250 6.0 11.0 0.00 0.00 0.00 54 1019.6
20260901141401 74 282 9.0 10.0 0.00 0.00 0.00 52 1020.0
20260901140901 74 297 3.0 10.0 0.00 0.00 0.00 53 1020.0
20260901140401 74 304 10.0 13.0 0.00 0.00 0.00 55 1020.0
20260901135901 73 301 10.0 10.0 0.00 0.00 0.00 54 1020.0
20260901135401 72 297 4.0 5.0 0.00 0.00 0.00 54 1020.0
20260901134901 72 306 13.0 17.0 0.00 0.00 0.00 55 1020.0
20260901134401 73 341 5.0 7.0 0.00 0.00 0.00 54 1020.0
20260901133901 72 327 10.0 12.0 0.00 0.00 0.00 56 1020.0
20260901133401 72 265 3.0 5.0 0.00 0.00 0.00 56 1020.0
20260901132901 72 275 5.0 6.0 0.00 0.00 0.00 57 1020.0
20260901132401 71 328 5.0 7.0 0.00 0.00 0.00 57 1020.0
20260901131901 71 319 10.0 13.0 0.00 0.00 0.00 55 1020.0
20260901131401 71 317 12.0 22.0 0.00 0.00 0.00 56 1020.0
20260901130901 71 312 11.0 21.0 0.00 0.00 0.00 55 1020.0
20260901130401 71 329 12.0 16.0 0.00 0.00 0.00 55 1020.0
20260901125902 71 290 6.0 7.0 0.00 0.00 0.00 56 1020.0
20260901125401 72 319 0.0 1.0 0.00 0.00 0.00 57 1020.0
20260901124901 71 311 7.0 12.0 0.00 0.00 0.00 56 1020.0
20260901124401 71 304 3.0 3.0 0.00 0.00 0.00 56 1020.0
20260901123901 72 310 5.0 5.0 0.00 0.00 0.00 57 1020.0
20260901123401 71 331 3.0 4.0 0.00 0.00 0.00 56 1020.0
20260901122901 71 337 7.0 12.0 0.00 0.00 0.00 54 1020.0
20260901122401 71 298 9.0 16.0 0.00 0.00 0.00 55 1020.0
20260901121901 71 284 10.0 12.0 0.00 0.00 0.00 56 1020.0
20260901121401 72 300 6.0 9.0 0.00 0.00 0.00 56 1020.0
20260901120901 71 299 5.0 6.0 0.00 0.00 0.00 58 1020.0
20260901120401 71 283 3.0 6.0 0.00 0.00 0.00 57 1020.0
20260901115901 71 347 10.0 13.0 0.00 0.00 0.00 54 1020.0
20260901115401 73 338 6.0 6.0 0.00 0.00 0.00 53 1020.0
20260901114901 74 285 6.0 10.0 0.00 0.00 0.00 54 1020.0
20260901114401 74 181 4.0 10.0 0.00 0.00 0.00 53 1020.0
20260901113902 71 345 15.0 15.0 0.00 0.00 0.00 54 1020.0
20260901113401 71 318 9.0 13.0 0.00 0.00 0.00 58 1020.0
20260901112901 71 293 4.0 6.0 0.00 0.00 0.00 60 1020.0
20260901112401 71 299 4.0 5.0 0.00 0.00 0.00 58 1020.0
20260901111901 71 300 6.0 7.0 0.00 0.00 0.00 57 1020.0
20260901111401 71 304 3.0 3.0 0.00 0.00 0.00 57 1020.0
20260901110901 71 286 6.0 8.0 0.00 0.00 0.00 57 1020.0
20260901110401 70 301 8.0 11.0 0.00 0.00 0.00 58 1020.0
20260901105901 71 286 11.0 12.0 0.00 0.00 0.00 58 1020.0
20260901105401 71 301 7.0 9.0 0.00 0.00 0.00 56 1020.0
20260901104901 74 242 10.0 10.0 0.00 0.00 0.00 54 1020.0
20260901104401 72 315 4.0 9.0 0.00 0.00 0.00 56 1020.0
20260901103901 71 304 9.0 17.0 0.00 0.00 0.00 57 1020.0
20260901103401 71 336 3.0 8.0 0.00 0.00 0.00 59 1020.0
20260901102901 71 348 13.0 17.0 0.00 0.00 0.00 56 1020.0
20260901102401 71 317 8.0 12.0 0.00 0.00 0.00 56 1019.6
20260901101901 69 350 9.0 10.0 0.00 0.00 0.00 58 1019.6
20260901101401 70 298 8.0 9.0 0.00 0.00 0.00 58 1019.6
20260901100901 71 307 6.0 7.0 0.00 0.00 0.00 58 1019.6
20260901100401 72 315 11.0 21.0 0.00 0.00 0.00 55 1019.6
20260901095901 72 281 7.0 10.0 0.00 0.00 0.00 57 1019.6
20260901095401 71 337 8.0 10.0 0.00 0.00 0.00 59 1019.6
20260901094901 72 262 8.0 11.0 0.00 0.00 0.00 57 1019.6
20260901094401 72 270 10.0 12.0 0.00 0.00 0.00 56 1019.6
20260901093901 71 297 5.0 6.0 0.00 0.00 0.00 60 1019.3
20260901093401 73 328 7.0 12.0 0.00 0.00 0.00 55 1019.3
20260901092901 72 340 11.0 13.0 0.00 0.00 0.00 57 1019.3
20260901092401 71 310 11.0 15.0 0.00 0.00 0.00 58 1019.6
20260901091901 71 298 8.0 8.0 0.00 0.00 0.00 59 1019.6
20260901091401 68 311 13.0 13.0 0.00 0.00 0.00 62 1019.3